[[{"header":{"parameterUnit":"m.s-1","parameterCategory":1,"la1":30.2991,"la2":30.254,"lo1":-89.0895,"lo2":-89.0444,"dy":0.0017,"dx":0.0017,"nx":28,"ny":28,"refTime":"2024-02-24T03:00:00:Z","depth":0,"parameterNumber":2,"parameterNumberName":"U-component_of_WINDS"},"data":[0,0,0,0,0,0,0,0,0,0,0,0,0,0,0,0,0,0,0,0,0,0,0,0,0,0,0,0,0,0,0,0,0,0,0,0,0,0,0,0,0,0,0,0,0,0,0,0,0,0,0,0,0,0,0,0,0,0,-1.2206,-1.2207,0,-1.2241,-1.2241,-1.2242,-1.2222,-1.2221,-1.222,-1.222,-1.2256,-1.2258,-1.226,0,0,0,0,0,0,0,0,0,0,0,0,0,-1.2125,-1.2127,-1.2206,-1.2207,-1.2207,-1.2241,-1.2241,-1.2242,-1.2223,-1.2221,-1.222,-1.2219,-1.2255,-1.2257,-1.226,0,0,0,0,0,0,0,0,0,0,0,0,0,-1.216,-1.2127,-1.2206,-1.2202,-1.2201,-1.2241,-1.2241,-1.2242,-1.2223,-1.2221,-1.222,-1.2219,-1.2255,-1.2257,-1.226,-1.2306,0,0,-1.2269,-1.227,0,0,0,0,0,0,0,0,-1.2158,-1.2163,-1.2202,-1.2202,-1.2202,-1.2226,-1.2226,-1.2263,-1.2223,-1.2215,-1.222,-1.2218,-1.2247,-1.225,-1.226,-1.2308,-1.2309,-1.2269,-1.2271,-1.2272,-1.2272,0,0,0,0,0,0,0,-1.2156,-1.2162,-1.222,-1.2202,-1.2202,-1.2198,-1.2202,-1.2233,-1.2239,-1.2215,-1.2214,-1.2218,-1.2247,-1.2257,-1.2261,-1.231,-1.2269,-1.2271,-1.2273,-1.2274,-1.2398,-1.24,0,0,0,0,0,0,-1.2153,-1.216,-1.2219,-1.2221,-1.2176,-1.2201,-1.2205,-1.222,-1.2238,-1.224,-1.222,-1.2217,-1.2253,-1.2258,-1.2262,-1.2318,-1.2272,-1.2274,-1.2276,-1.2397,-1.2399,-1.2401,0,0,0,0,0,0,-1.2152,-1.2159,-1.2217,-1.219,-1.2197,-1.2204,-1.2221,-1.2221,-1.2232,-1.2241,-1.2242,-1.2229,-1.2252,-1.2258,-1.2296,-1.2319,-1.2276,-1.2278,-1.2395,-1.2397,-1.24,-1.243,0,0,0,0,0,0,-1.215,-1.2158,-1.2176,-1.219,-1.2199,-1.225,-1.2222,-1.2223,-1.2236,-1.2234,-1.2251,-1.2252,-1.2252,-1.2291,-1.2298,-1.2322,-1.228,-1.2393,-1.2396,-1.2399,-1.2427,-1.2434,-1.2439,0,0,0,0,0,-1.2147,-1.2183,-1.2176,-1.2184,-1.222,-1.2251,-1.2256,-1.2255,-1.2238,-1.2256,-1.2262,-1.2252,-1.2315,-1.2295,-1.2303,-1.2328,-1.2391,-1.2395,-1.2399,-1.2425,-1.2432,-1.2439,0,0,0,0,0,0,-1.217,-1.2184,-1.2178,-1.222,-1.2234,-1.2248,-1.227,-1.2263,-1.2282,-1.2279,-1.2277,-1.2281,-1.232,-1.2328,-1.2305,-1.2374,-1.2351,-1.2356,-1.2368,-1.2375,-1.2381,-1.2379,-1.2283,0,0,0,0,0,-1.218,-1.2204,-1.2215,-1.2251,-1.2259,-1.2263,-1.2277,-1.2275,-1.229,-1.2296,-1.2305,-1.2321,-1.2345,-1.236,-1.2382,-1.2428,-1.2432,-1.2449,-1.2455,-1.246,-1.2465,-1.2491,-1.2499,-1.2413,-1.2413,-1.2413,0,0,-1.2201,-1.2212,-1.2227,-1.2256,-1.2267,-1.2293,-1.2269,-1.2296,-1.2315,-1.23,-1.2337,-1.2344,-1.2361,-1.2403,-1.2422,-1.2411,-1.2489,-1.2464,-1.2468,-1.2471,-1.2495,-1.2503,-1.2511,-1.2415,-1.2415,-1.2414,0,0,-1.2253,-1.2263,-1.2295,-1.2306,-1.2324,-1.2327,-1.2334,-1.2349,-1.2354,-1.239,-1.238,-1.2402,-1.2443,-1.2456,-1.2468,-1.2526,-1.2517,-1.2533,-1.2564,-1.2589,-1.2596,-1.2602,-1.2624,-1.2632,-1.2538,-1.2538,-1.2538,0,-1.2277,-1.2315,-1.2312,-1.2341,-1.2354,-1.2342,-1.2374,-1.2386,-1.241,-1.242,-1.2407,-1.2458,-1.2469,-1.2514,-1.2529,-1.2538,-1.2548,-1.2531,-1.2595,-1.2601,-1.2607,-1.2628,-1.2636,-1.254,-1.254,-1.2539,-1.2539,0,-1.2344,-1.237,-1.2394,-1.2417,-1.2433,-1.2464,-1.2467,-1.2483,-1.248,-1.2484,-1.2522,-1.2534,-1.256,-1.257,-1.2567,-1.2616,-1.2608,-1.2595,-1.2572,-1.2617,-1.2637,-1.2644,-1.2543,-1.2542,-1.2541,-1.2541,0,0,-1.2412,-1.2434,-1.2443,-1.2454,-1.2472,-1.2493,-1.2523,-1.2548,-1.2563,-1.258,-1.2606,-1.2641,-1.2629,-1.2643,-1.2641,-1.2663,-1.271,-1.2647,-1.2648,-1.2659,-1.2766,-1.2776,-1.2786,-1.2704,-1.2705,-1.2706,-1.2765,0,-1.2465,-1.2518,-1.2517,-1.2566,-1.2591,-1.258,-1.2607,-1.2622,-1.2627,-1.2649,-1.2655,-1.268,-1.2662,-1.2671,-1.2692,-1.2699,-1.2731,-1.2695,-1.2729,-1.273,-1.2726,-1.2796,-1.2807,-1.2861,-1.2772,-1.2774,-1.2775,0,-1.2535,-1.2555,-1.2607,-1.2623,-1.2633,-1.2657,-1.268,-1.2701,-1.2718,-1.272,-1.2736,-1.2731,-1.2763,-1.2738,-1.2782,-1.2758,-1.2772,-1.2778,-1.278,-1.2783,-1.2756,-1.2803,-1.2879,-1.2887,-1.2786,-1.2785,-1.2785,0,-1.2581,-1.262,-1.2657,-1.2666,-1.2685,-1.2703,-1.2712,-1.2727,-1.2742,-1.2762,-1.2773,-1.2796,-1.2809,-1.2828,-1.283,-1.2811,-1.2875,-1.285,-1.2879,-1.2879,-1.2893,-1.2893,-1.2974,-1.2901,-1.2901,-1.29,-1.29,0,-1.2641,-1.2674,-1.2677,-1.27,-1.2737,-1.2735,-1.2771,-1.2779,-1.2793,-1.2817,-1.2809,-1.2832,-1.2832,-1.2857,-1.2858,-1.2895,-1.2901,-1.2905,-1.2905,-1.2906,-1.2906,-1.2916,-1.2912,-1.2903,-1.2902,-1.2902,-1.2901,0,-1.2699,-1.2702,-1.2741,-1.2757,-1.2761,-1.2788,-1.2801,-1.2823,-1.2827,-1.2859,-1.2866,-1.2873,-1.2901,-1.2905,-1.2937,-1.2938,-1.2983,-1.2979,-1.2978,-1.2978,-1.3007,-1.3004,-1.3098,-1.3111,-1.3028,-1.3029,-1.3029,0,-1.2738,-1.2763,-1.2781,-1.2796,-1.2806,-1.2831,-1.2847,-1.2847,-1.2864,-1.2885,-1.2905,-1.2932,-1.2954,-1.2999,-1.3008,-1.3033,-1.303,-1.3061,-1.3033,-1.3034,-1.3032,-1.3031,-1.3034,-1.3066,-1.3067,-1.3068,-1.3069,0,-1.2807,-1.2808,-1.283,-1.2854,-1.2873,-1.2892,-1.2909,-1.2923,-1.2925,-1.2944,-1.2973,-1.299,-1.3023,-1.305,-1.3075,-1.3085,-1.3078,-1.3077,-1.3085,-1.3087,-1.3086,-1.3088,-1.2993,-1.3075,-1.3074,-1.3074,-1.3074,-1.3073,-1.2857,-1.2879,-1.2896,-1.2922,-1.2935,-1.2952,-1.2973,-1.2981,-1.3004,-1.3032,-1.303,-1.3062,-1.3079,-1.3112,-1.3124,-1.3149,-1.3139,-1.315,-1.3153,-1.3157,-1.316,-1.3081,-1.3153,-1.3153,-1.3153,-1.3153,-1.3153,0,-1.2927,-1.2937,-1.2961,-1.2986,-1.3007,-1.2997,-1.3017,-1.3035,-1.3063,-1.3079,-1.3101,-1.3134,-1.3161,-1.3172,-1.3199,-1.3217,-1.3214,-1.3224,-1.3223,-1.3226,-1.3167,-1.3158,-1.3226,-1.3226,-1.3226,-1.3226,-1.3226,-1.3226,-1.2966,-1.3003,-1.3006,-1.305,-1.306,-1.3091,-1.3103,-1.3119,-1.3132,-1.317,-1.3192,-1.3199,-1.3214,-1.3241,-1.3266,-1.3268,-1.3279,-1.3291,-1.3292,-1.3237,-1.323,-1.3223,-1.3214,-1.3293,-1.3293,-1.3349,-1.3349,-1.3349]},{"header":{"parameterUnit":"m.s-1","parameterCategory":1,"la1":30.2991,"la2":30.254,"lo1":-89.0895,"lo2":-89.0444,"dy":0.0017,"dx":0.0017,"nx":28,"ny":28,"refTime":"2024-02-24T03:00:00:Z","depth":0,"parameterNumber":3,"parameterNumberName":"V-component_of_WINDS"},"data":[0,0,0,0,0,0,0,0,0,0,0,0,0,0,0,0,0,0,0,0,0,0,0,0,0,0,0,0,0,0,0,0,0,0,0,0,0,0,0,0,0,0,0,0,0,0,0,0,0,0,0,0,0,0,0,0,0,0,-1.2922,-1.2922,0,-1.299,-1.2991,-1.2992,-1.3013,-1.3013,-1.3012,-1.3012,-1.3081,-1.3083,-1.3086,0,0,0,0,0,0,0,0,0,0,0,0,0,-1.2809,-1.2811,-1.2922,-1.2922,-1.2923,-1.299,-1.2991,-1.2992,-1.3013,-1.3013,-1.3012,-1.3012,-1.3081,-1.3083,-1.3086,0,0,0,0,0,0,0,0,0,0,0,0,0,-1.2865,-1.2811,-1.2921,-1.2942,-1.2944,-1.299,-1.2991,-1.2992,-1.3013,-1.3013,-1.3012,-1.3012,-1.308,-1.3083,-1.3086,-1.3116,0,0,-1.3096,-1.3097,0,0,0,0,0,0,0,0,-1.2862,-1.287,-1.2938,-1.2941,-1.2943,-1.2992,-1.2977,-1.3034,-1.3013,-1.2987,-1.3012,-1.3011,-1.3052,-1.3058,-1.3072,-1.3119,-1.3122,-1.3096,-1.3098,-1.31,-1.3101,0,0,0,0,0,0,0,-1.2858,-1.2867,-1.2949,-1.2939,-1.2942,-1.2948,-1.2955,-1.2988,-1.3021,-1.2989,-1.2991,-1.2999,-1.3054,-1.3068,-1.3073,-1.3123,-1.3096,-1.3099,-1.3101,-1.3102,-1.3199,-1.32,0,0,0,0,0,0,-1.2851,-1.2863,-1.2947,-1.2951,-1.2901,-1.295,-1.2958,-1.2977,-1.3021,-1.3027,-1.2999,-1.2999,-1.3063,-1.307,-1.3076,-1.3114,-1.31,-1.3103,-1.3105,-1.3198,-1.3199,-1.32,0,0,0,0,0,0,-1.2848,-1.2858,-1.2944,-1.2908,-1.2919,-1.2952,-1.2973,-1.2979,-1.2994,-1.3029,-1.3035,-1.3008,-1.3063,-1.3071,-1.3106,-1.3116,-1.3104,-1.3107,-1.3198,-1.3199,-1.3199,-1.319,0,0,0,0,0,0,-1.2845,-1.2857,-1.2869,-1.2908,-1.2921,-1.2973,-1.2974,-1.2981,-1.2999,-1.3,-1.3039,-1.3045,-1.3063,-1.3101,-1.3109,-1.3121,-1.311,-1.3197,-1.3198,-1.3199,-1.3189,-1.319,-1.3191,0,0,0,0,0,-1.2841,-1.2863,-1.2869,-1.2879,-1.2936,-1.2973,-1.2981,-1.3002,-1.3,-1.3012,-1.3035,-1.3043,-1.3114,-1.3104,-1.3114,-1.3126,-1.3196,-1.3198,-1.3199,-1.3189,-1.319,-1.3191,0,0,0,0,0,0,-1.2825,-1.2869,-1.2876,-1.2912,-1.2939,-1.2977,-1.2993,-1.3003,-1.3031,-1.303,-1.3055,-1.3064,-1.3097,-1.3115,-1.3103,-1.3158,-1.3155,-1.3159,-1.3144,-1.3146,-1.3147,-1.3142,-1.3112,0,0,0,0,0,-1.2825,-1.2852,-1.2889,-1.2917,-1.293,-1.2959,-1.2976,-1.299,-1.3019,-1.303,-1.3055,-1.3083,-1.3111,-1.313,-1.3158,-1.3192,-1.3201,-1.3205,-1.3206,-1.3207,-1.3209,-1.3229,-1.3231,-1.3204,-1.3204,-1.3204,0,0,-1.2827,-1.2854,-1.2869,-1.2914,-1.2937,-1.2964,-1.2968,-1.2997,-1.3017,-1.3035,-1.3069,-1.3088,-1.3121,-1.3155,-1.3172,-1.3172,-1.3219,-1.3209,-1.3209,-1.3211,-1.3231,-1.3233,-1.3235,-1.3205,-1.3205,-1.3205,0,0,-1.2843,-1.2866,-1.2892,-1.2915,-1.2949,-1.2968,-1.2974,-1.3011,-1.3025,-1.306,-1.3074,-1.3098,-1.3146,-1.3169,-1.3187,-1.3212,-1.3221,-1.322,-1.3225,-1.3243,-1.3246,-1.3248,-1.3257,-1.3259,-1.3223,-1.3223,-1.3223,0,-1.284,-1.2882,-1.2904,-1.2932,-1.2951,-1.2969,-1.2995,-1.3016,-1.3057,-1.307,-1.3069,-1.3131,-1.3154,-1.3194,-1.32,-1.3214,-1.3221,-1.3216,-1.3244,-1.3246,-1.3248,-1.3257,-1.326,-1.3222,-1.3222,-1.3222,-1.3222,0,-1.2877,-1.2905,-1.2922,-1.2962,-1.2983,-1.301,-1.3036,-1.3055,-1.3067,-1.3086,-1.3121,-1.315,-1.3184,-1.3194,-1.3206,-1.3236,-1.3235,-1.3239,-1.3237,-1.325,-1.3259,-1.3262,-1.3222,-1.3222,-1.3222,-1.3222,0,0,-1.2885,-1.2937,-1.2943,-1.2961,-1.3,-1.3022,-1.305,-1.3084,-1.3099,-1.3127,-1.3151,-1.3192,-1.3195,-1.3215,-1.323,-1.3246,-1.3264,-1.3248,-1.3249,-1.325,-1.3299,-1.3296,-1.33,-1.3271,-1.3271,-1.3272,-1.3296,0,-1.2906,-1.2956,-1.2977,-1.3018,-1.3044,-1.3061,-1.3085,-1.3112,-1.313,-1.3155,-1.3176,-1.3204,-1.3207,-1.3219,-1.3236,-1.3259,-1.3275,-1.3257,-1.3293,-1.3294,-1.3284,-1.3304,-1.3301,-1.3323,-1.33,-1.3301,-1.3301,0,-1.2938,-1.2966,-1.3009,-1.3045,-1.3057,-1.3078,-1.3111,-1.3135,-1.3165,-1.3178,-1.32,-1.3214,-1.3244,-1.324,-1.3281,-1.3268,-1.3284,-1.3297,-1.3299,-1.3303,-1.3298,-1.3309,-1.3331,-1.3334,-1.3307,-1.3306,-1.3306,0,-1.2939,-1.2988,-1.3021,-1.3036,-1.3078,-1.3093,-1.3111,-1.3141,-1.316,-1.3189,-1.3201,-1.3232,-1.325,-1.3273,-1.3295,-1.3291,-1.3334,-1.3332,-1.3345,-1.3345,-1.3354,-1.3353,-1.3378,-1.3364,-1.3364,-1.3364,-1.3364,0,-1.2961,-1.2987,-1.3022,-1.3042,-1.3071,-1.3095,-1.3123,-1.3142,-1.3169,-1.3193,-1.3209,-1.3231,-1.3259,-1.3284,-1.3302,-1.3333,-1.334,-1.3351,-1.3356,-1.335,-1.3348,-1.3361,-1.336,-1.3365,-1.3364,-1.3364,-1.3364,0,-1.2968,-1.2992,-1.3028,-1.3066,-1.3076,-1.3096,-1.3128,-1.3148,-1.3167,-1.3197,-1.3205,-1.3236,-1.3267,-1.3291,-1.3331,-1.3343,-1.3376,-1.338,-1.3366,-1.3368,-1.3379,-1.3378,-1.3413,-1.3419,-1.3401,-1.3401,-1.3401,0,-1.298,-1.3,-1.304,-1.3057,-1.3075,-1.3103,-1.3122,-1.3146,-1.3166,-1.3202,-1.3218,-1.325,-1.3276,-1.3325,-1.3351,-1.3381,-1.3387,-1.3397,-1.3392,-1.3385,-1.3387,-1.3386,-1.3388,-1.3398,-1.3398,-1.3398,-1.3398,0,-1.2999,-1.301,-1.3038,-1.3069,-1.3092,-1.3118,-1.3145,-1.3158,-1.3187,-1.3208,-1.324,-1.3261,-1.3302,-1.3333,-1.3367,-1.3386,-1.3397,-1.34,-1.3404,-1.3399,-1.3389,-1.3394,-1.3367,-1.3399,-1.3399,-1.3398,-1.3398,-1.3398,-1.3009,-1.3028,-1.3059,-1.3089,-1.3111,-1.3136,-1.3156,-1.3178,-1.3205,-1.3241,-1.3253,-1.3286,-1.3316,-1.3362,-1.3381,-1.3407,-1.3408,-1.3414,-1.3416,-1.3417,-1.3417,-1.3385,-1.3413,-1.3413,-1.3413,-1.3413,-1.3413,0,-1.3029,-1.305,-1.3077,-1.3114,-1.3137,-1.3146,-1.3176,-1.3195,-1.3224,-1.3251,-1.3277,-1.3313,-1.3344,-1.3372,-1.3404,-1.3419,-1.3425,-1.3427,-1.3426,-1.343,-1.3414,-1.3407,-1.3422,-1.3422,-1.3422,-1.3422,-1.3422,-1.3422,-1.3042,-1.3074,-1.3089,-1.3133,-1.3153,-1.3186,-1.3202,-1.3225,-1.3246,-1.3286,-1.3312,-1.333,-1.3358,-1.3392,-1.3421,-1.3428,-1.3439,-1.344,-1.3448,-1.3433,-1.3431,-1.343,-1.3424,-1.3442,-1.3442,-1.3462,-1.3463,-1.3463]}]]